Multibeam Report for EX1002


Ship Name: Okeanos Explorer
Chief Scientist: Lovalvo, Dave
NOAA/OAR/OER
Source Organization: National Oceanic and Atmospheric Administration (NOAA)
Start Date: 2010-02-22
End Date: 2010-05-12


View ISO Metadata

Visit the full NCEI Bathymetry Viewer


Multibeam Bathymetry

Cruise Details

Project: ROV Focus, Hawaiian Islands
Instrument: Simrad EM302

Data Quality

Number of Files: 111
Number of Records: 62206
BATHYMETRY DATA Quantity Percentage
Number of Beams 12670416 100%
Number of Good Beams 11608958 91.62%
Number of Zero Beams 0 0%
Number of Flagged Beams 1061458 8.38%

Navigation Totals

Total Time: 110.9349 hours
Total Track Length: 1714.365 km
Average Speed: 15.454 km/hr (8.3445 knots)

Cruise Bounds

Northern Extent: 21.368399
Southern Extent: 19.170473
Western Extent: -158.75986
Eastern Extent: -156.0098

Limits

Minimum Sonar Depth 2.8266 Maximum Sonar Depth 6.7766
Minimum Altitude 0 Maximum Altitude 5884.6084
Minimum Depth 4.2734 Maximum Depth 8012.1973

File Information

Full Resolution Bathymetry as collected (raw): 107

Files File Size Description
0000_20100311_024234_EX.all.mb58.gz 47.34MB Kongsberg multibeam vendor format
0001_20100311_034631_EX.all.mb58.gz 11.59MB Kongsberg multibeam vendor format
0001_20100319_210333_EX.all.mb58.gz 35.59MB Kongsberg multibeam vendor format
0002_20100311_040208_EX.all.mb58.gz 10.15MB Kongsberg multibeam vendor format
0002_20100319_214351_EX.all.mb58.gz 41.11MB Kongsberg multibeam vendor format
0003_20100311_041548_EX.all.mb58.gz 16.50MB Kongsberg multibeam vendor format
0003_20100319_222944_EX.all.mb58.gz 27.62MB Kongsberg multibeam vendor format
0004_20100311_043743_EX.all.mb58.gz 10.89MB Kongsberg multibeam vendor format
0004_20100320_230012_EX.all.mb58.gz 22.74MB Kongsberg multibeam vendor format
0005_20100311_045213_EX.all.mb58.gz 5.33MB Kongsberg multibeam vendor format
0006_20100317_035621_EX.all.mb58.gz 261.72MB Kongsberg multibeam vendor format
0007_20100317_095619_EX.all.mb58.gz 268.55MB Kongsberg multibeam vendor format
0008_20100317_155622_EX.all.mb58.gz 83.98MB Kongsberg multibeam vendor format
0009_20100320_024846_EX.all.mb58.gz 38.06MB Kongsberg multibeam vendor format
0010_20100320_035456_EX.all.mb58.gz 25.78MB Kongsberg multibeam vendor format
0011_20100320_043716_EX.all.mb58.gz 24.56MB Kongsberg multibeam vendor format
0012_20100320_050941_EX.all.mb58.gz 271.13MB Kongsberg multibeam vendor format
0013_20100320_110943_EX.all.mb58.gz 271.80MB Kongsberg multibeam vendor format
0014_20100320_170944_EX.all.mb58.gz 30.64MB Kongsberg multibeam vendor format
0015_20100321_003739_EX.all.mb58.gz 22.74MB Kongsberg multibeam vendor format
0016_20100321_011447_EX.all.mb58.gz 23.47MB Kongsberg multibeam vendor format
0017_20100321_015753_EX.all.mb58.gz 28.14MB Kongsberg multibeam vendor format
0018_20100321_024111_EX.all.mb58.gz 26.78MB Kongsberg multibeam vendor format
0019_20100321_032248_EX.all.mb58.gz 28.41MB Kongsberg multibeam vendor format
0020_20100321_043031_EX.all.mb58.gz 23.54MB Kongsberg multibeam vendor format
0021_20100327_033545_EX.all.mb58.gz 5.26MB Kongsberg multibeam vendor format
0022_20100327_034245_EX.all.mb58.gz 22.10MB Kongsberg multibeam vendor format
0023_20100327_041222_EX.all.mb58.gz 23.00MB Kongsberg multibeam vendor format
0024_20100327_044318_EX.all.mb58.gz 24.71MB Kongsberg multibeam vendor format
0025_20100327_051342_EX.all.mb58.gz 7.96MB Kongsberg multibeam vendor format
0026_20100327_052538_EX.all.mb58.gz 273.64MB Kongsberg multibeam vendor format
0027_20100327_112520_EX.all.mb58.gz 250.56MB Kongsberg multibeam vendor format
0000_20100430_205735_EX.all.mb58.gz 15.67MB Kongsberg multibeam vendor format
0000_20100503_155837_EX.all.mb58.gz 14.30MB Kongsberg multibeam vendor format
0001_20100430_211013_EX.all.mb58.gz 16.13MB Kongsberg multibeam vendor format
0001_20100503_162513_EX.all.mb58.gz 17.75MB Kongsberg multibeam vendor format
0002_20100430_214909_EX.all.mb58.gz 34.61MB Kongsberg multibeam vendor format
0002_20100503_164757_EX.all.mb58.gz 6.8KB Kongsberg multibeam vendor format
0003_20100501_031531_EX.all.mb58.gz 113.33MB Kongsberg multibeam vendor format
0003_20100503_165618_EX.all.mb58.gz 19.13MB Kongsberg multibeam vendor format
0004_20100503_172613_EX.all.mb58.gz 18.13MB Kongsberg multibeam vendor format
0005_20100501_054651_EX.all.mb58.gz 8.46MB Kongsberg multibeam vendor format
0005_20100503_175403_EX.all.mb58.gz 24.67MB Kongsberg multibeam vendor format
0006_20100501_055742_EX.all.mb58.gz 14.38MB Kongsberg multibeam vendor format
0006_20100503_182158_EX.all.mb58.gz 24.00MB Kongsberg multibeam vendor format
0007_20100501_070622_EX.all.mb58.gz 40.02MB Kongsberg multibeam vendor format
0007_20100503_185239_EX.all.mb58.gz 31.61MB Kongsberg multibeam vendor format
0008_20100501_083108_EX.all.mb58.gz 8.32MB Kongsberg multibeam vendor format
0008_20100503_192136_EX.all.mb58.gz 30.07MB Kongsberg multibeam vendor format
0009_20100501_190039_EX.all.mb58.gz 9.97MB Kongsberg multibeam vendor format
0009_20100503_194950_EX.all.mb58.gz 27.47MB Kongsberg multibeam vendor format
0010_20100501_193704_EX.all.mb58.gz 14.29MB Kongsberg multibeam vendor format
0010_20100503_201438_EX.all.mb58.gz 32.28MB Kongsberg multibeam vendor format
0011_20100501_200300_EX.all.mb58.gz 14.41MB Kongsberg multibeam vendor format
0012_20100501_202850_EX.all.mb58.gz 13.90MB Kongsberg multibeam vendor format
0013_20100501_210246_EX.all.mb58.gz 101.22MB Kongsberg multibeam vendor format
0014_20100501_231646_EX.all.mb58.gz 13.98MB Kongsberg multibeam vendor format
0015_20100501_234519_EX.all.mb58.gz 12.18MB Kongsberg multibeam vendor format
0016_20100502_000732_EX.all.mb58.gz 14.84MB Kongsberg multibeam vendor format
0017_20100502_003308_EX.all.mb58.gz 15.51MB Kongsberg multibeam vendor format
0018_20100502_005614_EX.all.mb58.gz 200.1KB Kongsberg multibeam vendor format
0019_20100502_010649_EX.all.mb58.gz 16.82MB Kongsberg multibeam vendor format
0020_20100502_013954_EX.all.mb58.gz 12.40MB Kongsberg multibeam vendor format
0021_20100502_020240_EX.all.mb58.gz 23.73MB Kongsberg multibeam vendor format
0022_20100502_023823_EX.all.mb58.gz 14.25MB Kongsberg multibeam vendor format
0023_20100502_030241_EX.all.mb58.gz 65.14MB Kongsberg multibeam vendor format
0024_20100502_041308_EX.all.mb58.gz 8.08MB Kongsberg multibeam vendor format
0025_20100502_042128_EX.all.mb58.gz 77.06MB Kongsberg multibeam vendor format
0026_20100502_062253_EX.all.mb58.gz 1.20MB Kongsberg multibeam vendor format
0027_20100502_062440_EX.all.mb58.gz 21.26MB Kongsberg multibeam vendor format
0028_20100502_070113_EX.all.mb58.gz 68.47MB Kongsberg multibeam vendor format
0029_20100502_083606_EX.all.mb58.gz 12.14MB Kongsberg multibeam vendor format
0030_20100502_085319_EX.all.mb58.gz 10.01MB Kongsberg multibeam vendor format
0031_20100502_090905_EX.all.mb58.gz 12.90MB Kongsberg multibeam vendor format
0032_20100502_092807_EX.all.mb58.gz 15.22MB Kongsberg multibeam vendor format
0033_20100502_094943_EX.all.mb58.gz 275.99MB Kongsberg multibeam vendor format
0034_20100502_154653_EX.all.mb58.gz 41.89MB Kongsberg multibeam vendor format
0035_20100502_164245_EX.all.mb58.gz 155.33MB Kongsberg multibeam vendor format
0036_20100502_200721_EX.all.mb58.gz 5.68MB Kongsberg multibeam vendor format
0037_20100502_201948_EX.all.mb58.gz 9.78MB Kongsberg multibeam vendor format
0038_20100502_203629_EX.all.mb58.gz 17.22MB Kongsberg multibeam vendor format
0039_20100502_210258_EX.all.mb58.gz 11.64MB Kongsberg multibeam vendor format
0040_20100502_214932_EX.all.mb58.gz 90.12MB Kongsberg multibeam vendor format
0041_20100503_000415_EX.all.mb58.gz 28.08MB Kongsberg multibeam vendor format
0042_20100503_004326_EX.all.mb58.gz 76.49MB Kongsberg multibeam vendor format
0043_20100503_024330_EX.all.mb58.gz 81.70MB Kongsberg multibeam vendor format
0044_20100503_043722_EX.all.mb58.gz 26.11MB Kongsberg multibeam vendor format
0045_20100503_051214_EX.all.mb58.gz 13.37MB Kongsberg multibeam vendor format
0046_20100503_052958_EX.all.mb58.gz 26.03MB Kongsberg multibeam vendor format
0047_20100503_060452_EX.all.mb58.gz 19.24MB Kongsberg multibeam vendor format
0048_20100503_063039_EX.all.mb58.gz 25.69MB Kongsberg multibeam vendor format
0049_20100503_070456_EX.all.mb58.gz 15.79MB Kongsberg multibeam vendor format
0050_20100503_072559_EX.all.mb58.gz 30.10MB Kongsberg multibeam vendor format
0051_20100503_080606_EX.all.mb58.gz 2.47MB Kongsberg multibeam vendor format
0052_20100503_084824_EX.all.mb58.gz 298.96MB Kongsberg multibeam vendor format
0053_20100503_144828_EX.all.mb58.gz 64.42MB Kongsberg multibeam vendor format
0057_20100510_180903_EX.all.mb58.gz 62.30MB Kongsberg multibeam vendor format
0058_20100511_043010_EX.all.mb58.gz 67.73MB Kongsberg multibeam vendor format
0059_20100511_055134_EX.all.mb58.gz 90.37MB Kongsberg multibeam vendor format
0060_20100511_073524_EX.all.mb58.gz 0.62MB Kongsberg multibeam vendor format
0061_20100511_074811_EX.all.mb58.gz 11.84MB Kongsberg multibeam vendor format
0062_20100511_080258_EX.all.mb58.gz 112.73MB Kongsberg multibeam vendor format
0063_20100511_101540_EX.all.mb58.gz 3.88MB Kongsberg multibeam vendor format
0064_20100511_103427_EX.all.mb58.gz 75.25MB Kongsberg multibeam vendor format
0065_20100511_122758_EX.all.mb58.gz 11.33MB Kongsberg multibeam vendor format
0066_20100511_124348_EX.all.mb58.gz 53.20MB Kongsberg multibeam vendor format
0067_20100511_135825_EX.all.mb58.gz 156.97MB Kongsberg multibeam vendor format

Metadata Files: 4

Files File Size Description
EX1002_Multibeam.xml NGDC created ISO metadata
EX1002_CruiseLevel.xml 3.0KB XML metadata file
v1_leg2_file_metadata.tar.gz 6.6KB File level metadata
v1_leg3_file_metadata.tar.gz 11.2KB File level metadata